Location: B�rgermoos
(47.6500°N, 9.0667°E)
Time: 23:06:54
(UTC+00:00)

Tiros 1 - Pass Details

Date: 12 August 2021
Orbit: 630 x 663 km, 48.4° (Epoch: 19 September)

Event Time Altitude Azimuth Distance (km) Brightness Sun altitude
Rises 17:42:17 0° 285° (WNW) 2,993 13.1 8.6°
Reaches altitude 10° 17:44:39 10° 282° (WNW) 2,076 14.0 8.2°
Maximum altitude 17:49:24 66° 202° (SSW) 717 7.6 7.4°
Drops below altitude 10° 17:54:06 10° 120° (ESE) 2,053 9.2 6.7°
Sets 17:56:26 0° 117° (ESE) 2,956 9.9 6.3°
